TimeCDT,TemperatureF,Dew PointF,Humidity,Sea Level PressureIn,VisibilityMPH,Wind Direction,Wind SpeedMPH,Gust SpeedMPH,PrecipitationIn,Events,Conditions,WindDirDegrees,DateUTC
12:54 AM,57.9,52.0,81,29.85,10.0,Calm,Calm,-,N/A,,Clear,0,2012-10-17 05:54:00
1:54 AM,57.0,52.0,83,29.85,10.0,Calm,Calm,-,N/A,,Partly Cloudy,0,2012-10-17 06:54:00
2:54 AM,55.0,52.0,89,29.84,10.0,SSE,5.8,-,N/A,,Partly Cloudy,160,2012-10-17 07:54:00
3:54 AM,57.0,52.0,83,29.84,10.0,Calm,Calm,-,N/A,,Scattered Clouds,0,2012-10-17 08:54:00
4:54 AM,55.9,51.1,84,29.83,10.0,SSE,8.1,-,N/A,,Clear,150,2012-10-17 09:54:00
5:54 AM,57.0,52.0,83,29.84,10.0,SSE,6.9,-,N/A,,Clear,160,2012-10-17 10:54:00
6:54 AM,57.0,52.0,83,29.84,10.0,SSE,8.1,-,N/A,,Clear,150,2012-10-17 11:54:00
7:54 AM,59.0,52.0,78,29.84,10.0,SSE,10.4,-,N/A,,Clear,150,2012-10-17 12:54:00
8:54 AM,64.9,52.0,63,29.85,10.0,SSE,11.5,-,N/A,,Clear,150,2012-10-17 13:54:00
9:54 AM,71.1,55.0,57,29.81,10.0,South,12.7,-,N/A,,Clear,170,2012-10-17 14:54:00
10:54 AM,75.0,60.1,60,29.80,10.0,South,18.4,25.3,N/A,,Clear,180,2012-10-17 15:54:00
11:54 AM,78.1,61.0,56,29.79,10.0,South,13.8,31.1,N/A,,Partly Cloudy,180,2012-10-17 16:54:00
12:54 PM,80.1,61.0,52,29.77,10.0,South,16.1,24.2,N/A,,Scattered Clouds,190,2012-10-17 17:54:00
1:54 PM,80.1,62.1,54,29.73,10.0,South,16.1,21.9,N/A,,Mostly Cloudy,190,2012-10-17 18:54:00
2:54 PM,80.1,63.0,56,29.72,10.0,South,15.0,-,N/A,,Mostly Cloudy,190,2012-10-17 19:54:00
3:54 PM,80.1,63.0,56,29.70,10.0,South,15.0,20.7,N/A,,Mostly Cloudy,170,2012-10-17 20:54:00
4:54 PM,79.0,64.0,60,29.69,10.0,South,15.0,-,N/A,,Partly Cloudy,170,2012-10-17 21:54:00
5:54 PM,77.0,64.0,64,29.69,10.0,SSE,11.5,-,N/A,,Partly Cloudy,160,2012-10-17 22:54:00
6:54 PM,75.0,64.0,69,29.69,10.0,South,10.4,-,N/A,,Clear,170,2012-10-17 23:54:00
7:54 PM,73.0,64.0,73,29.69,10.0,SSE,11.5,-,N/A,,Clear,160,2012-10-18 00:54:00
8:54 PM,72.0,64.9,78,29.68,10.0,SSE,13.8,23.0,N/A,,Scattered Clouds,160,2012-10-18 01:54:00
9:54 PM,72.0,66.0,81,29.67,10.0,South,16.1,23.0,N/A,,Partly Cloudy,170,2012-10-18 02:54:00
10:52 PM,73.4,66.2,78,29.68,10.0,South,17.3,25.3,N/A,,Overcast,180,2012-10-18 03:52:00
10:54 PM,73.0,66.9,81,29.67,10.0,South,19.6,-,N/A,,Overcast,180,2012-10-18 03:54:00
11:54 PM,73.9,68.0,82,29.66,10.0,South,17.3,27.6,N/A,,Overcast,190,2012-10-18 04:54:00